Location: Haut Kerinec
(48.0623°N, 4.4081°W)
Time: 22:44:02
(UTC+00:00)

Cosmos 1626 - Pass Details

Date: 01 June 2020
Orbit: 490 x 496 km, 82.5° (Epoch: 14 July)

Event Time Altitude Azimuth Distance (km) Brightness Sun altitude
Exits shadow 23:35:54 19° 97° (E) 1,245 3.9 -19.2°
Maximum altitude 23:36:18 19° 88° (E) 1,234 4.0 -19.2°
Drops below altitude 10° 23:39:00 10° 41° (NE) 1,707 5.3 -19.2°
Sets 23:41:32 0° 24° (NNE) 2,596 6.7 -19.3°
